Voltar ao catálogo

SL-3 R/B

AtivoPO
NORAD 13121·ROCKET BODY·🇷🇺 Russia

Lançado Mar 31, 1982 de Plesetsk Cosmodrome

Loading…

Próximas Passagens (próximas 24 horas)

TLE

AtualizadoSource: Space-Track

Época: Sep 14, 2026, 21:29 UTC

1 13121U 82027B   26257.89571002  .00005592  00000-0  18977-3 0  9997
2 13121  81.1891 173.7651 0008107   1.5902 358.5359 15.30304657427477

Acompanhe SL-3 R/B em tempo real com AllMySat

Download on the App Store